Starlink 30114

operational
NORAD ID: 56826 Int'l Des: 2023-079 Owner: SPXS Country: US Constellation: starlink
LEOCIRCULAR

Über Starlink 30114

Beschreibung wird geladen...

Live-Position

3D-Globus wird geladen...

Nächste Überflüge

Höhenverlauf

Altitude vs Time

uPlot chart will show altitude changes over time

Zweizeiliger Elementsatz

1 56826U 23079D 26095.01752656 -.00000474 00000-0 -79684-5 0 9998
2 56826 43.0030 318.2779 0001585 264.5636 95.5035 15.26763007157228
Epoch: 5. Apr. 2026 • Age: 22 hours

Aktueller Status

Höhe 496.4 km
Geschwindigkeit 7.62 km/s
Subsatellitenpunkt -39.66°S, 85.3°E
Startdatum 4. Juni 2023
Alter 2.8 years
Typ internet

Technische Details

Klassifizierung Payload
Masse 730.00 kg
Trockenmasse 700.00 kg
Gesamtmasse 730.00 kg
Länge 0.30 m
Durchmesser 4.10 m
Spannweite 29.00 m
Form Box + pan
Hersteller SPXS
Bus-Typ Starlink V2M
Phasenstatus In Orbit
Besitzer/Staat SPXS/US

Große Konstellationen

Loading constellations...